Wind_Speed
21 22 22 22 22 21 22 22 23 23 23 23 22 23 23 22 21 21 22 21 20 19 19 19 18 17 17 18 17 17 18 18 19 19 20 20 21 22 23 24 24 24 25
22 22 22 22 22 22 22 22 22 22 22 21 22 22 21 21 21 21 21 21 19 18 18 18 17 16 16 16 17 16 17 18 19 19 19 20 21 21 22 23 23 23 23
22 22 22 22 22 22 21 21 20 20 20 20 21 20 20 20 19 20 20 19 19 18 17 17 16 16 16 15 15 16 17 18 18 19 20 20 20 21 22 22 23 23 23
23 23 23 22 21 21 21 20 18 18 18 19 19 19 19 18 18 18 18 17 18 17 15 15 15 15 15 14 15 16 17 18 18 19 19 20 20 20 21 21 21 22 23
22 22 23 22 21 20 20 20 18 18 18 18 18 18 18 17 16 17 16 16 16 16 16 15 16 15 15 14 15 16 17 18 18 19 19 19 20 20 20 20 20 21 21
22 22 22 22 21 20 20 18 18 17 17 18 17 16 16 15 15 16 16 16 15 15 15 15 15 15 15 15 16 17 17 17 18 18 19 19 19 20 21 21 21 20 21
22 22 21 22 22 21 20 18 18 18 18 17 16 15 15 16 15 15 16 15 14 13 14 14 15 15 15 15 17 17 17 18 19 18 19 19 20 20 21 21 21 21 21
20 20 22 23 22 21 20 19 18 18 18 17 16 16 16 16 16 15 15 14 13 13 13 14 15 15 15 16 17 18 18 18 18 18 19 20 20 20 20 21 21 21 22
20 21 22 23 22 22 21 19 18 17 17 17 17 16 15 15 14 14 14 14 14 14 13 14 15 15 15 16 17 17 18 18 19 19 19 19 19 20 21 21 22 22 22
21 21 21 22 23 22 20 19 17 17 17 17 15 14 14 14 14 14 14 14 14 14 14 14 15 15 16 16 17 17 17 17 18 19 19 19 19 19 20 21 22 22 22
21 23 22 22 22 21 19 17 16 16 16 15 14 14 14 14 14 14 14 14 14 14 14 14 14 15 15 15 15 16 16 17 18 18 18 19 19 19 20 21 21 22 22
21 22 21 21 20 19 17 16 15 15 15 15 14 14 14 14 14 15 15 15 15 15 15 15 14 14 14 15 15 15 16 17 18 18 18 18 19 19 20 20 21 21 21
21 21 21 20 19 17 16 15 15 15 15 15 14 14 15 15 15 16 15 15 16 16 15 15 15 15 15 16 15 15 16 17 18 18 18 18 19 19 19 20 20 21 21
21 21 20 19 18 17 16 15 15 15 15 15 15 15 15 16 16 16 16 16 16 16 16 16 16 17 17 16 15 16 16 17 18 18 18 18 19 19 19 20 20 20 20
21 21 20 19 18 17 17 16 16 16 16 16 15 15 15 16 15 16 16 15 16 16 16 16 17 17 17 16 16 17 17 17 17 17 17 18 18 19 19 19 20 20 21
20 20 19 18 18 17 17 16 16 16 16 16 15 15 15 15 14 15 15 16 16 17 17 18 18 18 17 17 17 17 17 17 17 17 17 17 18 19 20 20 21 22 21
19 19 19 18 18 17 17 16 16 16 16 15 15 14 14 14 14 15 16 16 16 17 17 17 17 18 18 17 17 17 17 17 17 17 18 18 19 20 21 21 22 22 22
19 19 18 18 17 17 16 16 16 16 15 15 15 15 15 15 15 16 16 15 16 16 17 17 17 17 18 18 18 17 18 17 18 18 19 20 21 21 22 22 23 23 23
19 18 18 18 17 17 16 17 17 16 16 15 15 16 16 16 16 16 16 16 17 17 17 17 17 18 18 18 18 17 17 17 17 17 18 20 21 21 22 22 22 23 23
18 17 17 18 18 17 17 17 17 17 17 17 17 16 16 16 16 17 17 17 18 18 18 18 18 18 18 18 18 17 17 17 17 18 19 19 20 21 21 22 22 22 23
18 18 18 18 18 18 17 17 17 17 18 18 17 16 17 17 17 17 17 17 17 17 17 18 18 18 18 17 17 17 17 17 18 18 19 19 20 21 21 21 21 22 22
19 19 19 19 19 19 18 18 18 18 18 18 18 17 17 18 18 18 18 17 17 17 17 18 18 18 18 17 17 17 17 18 19 19 19 19 20 21 21 21 21 22 22
21 21 20 20 20 20 20 19 19 19 19 19 18 18 18 18 19 19 18 18 18 18 18 18 18 17 17 16 16 16 16 17 18 18 18 19 20 20 21 21 21 22 23
23 23 22 21 21 20 20 20 20 19 19 19 19 19 19 19 18 18 19 19 18 18 18 18 18 17 16 16 16 16 17 17 17 17 18 19 20 20 21 21 21 22 23
24 23 22 22 21 21 20 20 20 20 20 20 20 20 19 19 19 19 20 19 18 18 18 18 18 16 16 16 16 16 17 17 18 18 19 20 21 21 20 20 21 22 24
25 23 23 23 22 21 21 20 21 20 20 19 19 19 18 19 19 19 19 18 18 18 17 17 16 15 15 15 16 16 17 17 18 18 19 20 20 20 21 22 22 23 24
Wind_Direction
302 303 302 303 302 301 300 297 296 296 297 296 297 297 298 296 293 291 292 293 293 289 284 283 282 281 277 275 274 274 275 275 275 278 278 277 278 278 276 274 273 271 269
304 304 304 303 303 303 301 297 295 296 297 297 298 297 298 300 296 294 293 293 293 290 285 283 285 283 279 276 274 275 276 277 276 279 278 278 280 282 279 277 276 273 270
304 305 306 306 306 307 304 300 300 299 297 298 298 300 301 301 298 296 296 293 290 289 288 287 288 287 283 279 275 276 279 280 279 279 279 281 281 281 280 279 277 274 272
305 307 309 308 308 309 306 302 301 300 298 300 301 302 303 301 299 296 297 295 292 291 294 293 292 290 287 281 277 278 280 281 281 281 281 282 284 283 283 281 279 276 273
306 308 309 311 311 311 308 302 298 301 302 303 304 304 302 300 298 299 298 297 295 292 291 293 291 288 286 283 281 282 283 283 281 280 280 282 284 284 285 283 281 278 275
303 306 308 310 311 311 308 305 302 301 302 303 304 305 303 302 298 301 300 299 299 295 291 292 293 288 286 285 282 282 284 284 285 283 283 284 285 286 286 284 282 281 277
303 306 311 312 311 311 308 303 303 303 303 301 301 301 300 301 297 298 301 299 300 302 301 296 294 290 287 284 281 282 284 284 285 284 284 285 287 288 288 287 285 283 280
305 308 311 314 312 310 307 304 302 303 303 302 299 298 298 297 295 296 298 300 298 301 303 301 297 293 290 286 282 283 285 284 284 285 284 284 285 286 288 288 286 285 282
309 310 310 311 311 309 307 306 303 302 303 303 300 295 295 297 297 297 297 301 300 301 302 302 300 298 294 292 290 288 286 285 285 286 286 287 287 289 289 289 288 287 286
309 311 311 310 311 310 307 305 304 303 303 303 301 297 296 294 296 297 298 300 301 302 302 304 302 299 297 296 294 291 288 287 286 286 287 289 291 293 293 292 292 291 290
311 313 312 311 312 310 308 307 306 305 304 303 301 300 299 295 295 295 296 298 300 303 303 304 305 303 300 300 298 292 288 288 289 291 291 292 295 296 297 296 294 293 292
313 314 315 315 314 312 312 309 307 307 307 305 302 299 298 294 292 292 294 296 298 299 301 303 306 306 306 305 300 294 292 291 291 292 292 293 295 298 299 297 297 296 293
313 315 318 318 317 314 313 310 308 308 308 306 303 301 299 297 293 291 292 295 297 299 302 305 307 307 307 306 303 299 297 294 293 292 292 293 296 299 300 299 299 298 295
312 314 317 317 316 313 311 309 308 309 309 307 306 304 300 297 294 292 292 296 298 301 303 305 305 306 305 305 304 302 300 298 298 298 297 296 296 298 301 301 301 300 297
309 311 314 316 316 314 311 308 308 309 309 307 305 305 302 297 293 293 293 296 300 302 303 302 303 305 304 303 303 302 301 301 301 300 299 298 296 298 300 303 304 302 301
309 310 312 313 314 314 313 310 308 309 309 309 308 305 303 300 296 295 296 298 301 302 301 302 302 303 302 301 301 302 303 303 302 301 300 298 297 299 301 302 302 302 302
307 310 311 312 313 313 313 313 312 309 309 308 308 308 307 303 300 299 298 299 301 303 303 303 301 301 302 301 302 302 303 303 303 303 302 301 301 301 301 300 301 303 303
304 306 306 307 310 310 310 310 312 312 310 308 306 305 305 302 300 299 300 299 302 303 304 304 302 301 301 301 301 302 302 303 303 303 303 304 304 303 303 302 304 304 304
304 305 304 306 307 306 305 306 307 308 308 307 306 303 302 299 299 301 300 298 299 302 304 304 302 302 303 303 303 303 303 304 305 305 306 307 307 306 306 306 307 307 307
303 302 303 303 304 304 303 304 304 304 303 303 305 303 300 298 299 301 300 299 298 298 302 303 303 305 305 305 304 303 305 305 306 308 309 310 310 310 310 310 311 312 311
302 302 302 301 302 304 303 302 301 301 302 302 301 298 296 297 298 300 300 299 298 298 300 302 302 302 303 303 302 301 302 303 306 308 309 311 312 313 313 314 314 313 312
299 299 299 299 299 301 301 300 299 300 301 300 299 294 293 295 297 297 297 297 297 297 298 302 303 301 300 300 300 300 302 304 307 310 311 313 314 315 315 315 315 314 313
296 297 297 298 298 298 297 298 300 301 300 300 299 295 292 295 298 298 296 296 296 297 299 301 302 301 298 298 300 300 301 304 306 309 311 313 314 316 318 317 316 316 316
293 294 294 296 297 296 295 295 297 299 299 297 297 296 294 296 296 296 297 297 296 297 300 300 300 299 298 299 300 300 300 302 306 311 315 316 317 318 318 317 317 318 318
290 293 292 293 295 293 292 292 293 295 297 298 297 296 295 294 293 294 296 295 295 297 298 300 300 298 298 300 301 301 301 304 307 310 313 315 316 316 317 317 317 318 317
287 290 292 291 291 291 291 291 290 291 294 296 297 296 295 294 293 293 293 294 295 295 296 296 298 299 299 300 303 304 305 307 309 311 314 315 317 317 318 318 318 319 319
Height
5836 5834 5831 5829 5827 5825 5823 5822 5820 5819 5817 5815 5813 5810 5809 5807 5805 5803 5801 5800 5798 5797 5795 5795 5794 5793 5793 5794 5794 5795 5795 5795 5795 5795 5795 5795 5795 5795 5795 5794 5794 5794 5795
5832 5829 5827 5825 5823 5821 5819 5817 5815 5813 5811 5810 5808 5805 5803 5802 5800 5798 5796 5795 5793 5792 5791 5791 5790 5789 5789 5789 5790 5790 5790 5790 5790 5790 5790 5790 5790 5789 5789 5788 5788 5788 5788
5828 5825 5822 5820 5818 5816 5814 5812 5810 5809 5807 5805 5803 5801 5799 5797 5795 5794 5792 5790 5789 5788 5787 5786 5786 5785 5785 5785 5785 5786 5786 5786 5785 5785 5785 5784 5784 5784 5783 5782 5781 5781 5781
5824 5821 5818 5816 5814 5812 5809 5808 5806 5804 5802 5800 5798 5796 5794 5793 5791 5790 5788 5787 5786 5784 5784 5783 5782 5781 5781 5781 5781 5781 5781 5781 5781 5780 5779 5779 5778 5778 5778 5777 5776 5775 5775
5820 5818 5815 5813 5810 5808 5805 5803 5801 5800 5798 5796 5795 5793 5791 5789 5788 5786 5785 5784 5782 5781 5780 5779 5778 5778 5777 5777 5777 5777 5777 5776 5776 5775 5774 5774 5773 5772 5772 5772 5771 5770 5770
5816 5814 5812 5810 5806 5804 5802 5799 5797 5795 5794 5792 5791 5789 5787 5786 5785 5783 5782 5781 5780 5778 5777 5776 5775 5774 5774 5774 5773 5773 5772 5772 5771 5770 5769 5769 5768 5767 5766 5766 5765 5765 5764
5813 5811 5808 5806 5803 5800 5798 5796 5794 5792 5791 5789 5787 5786 5784 5783 5782 5780 5779 5778 5776 5775 5774 5773 5772 5771 5770 5770 5769 5769 5768 5767 5766 5765 5764 5764 5763 5762 5761 5760 5759 5759 5758
5809 5807 5805 5802 5799 5796 5795 5792 5791 5789 5787 5785 5784 5782 5781 5779 5778 5777 5776 5775 5773 5772 5771 5770 5768 5767 5766 5765 5765 5764 5763 5762 5761 5760 5759 5758 5758 5757 5756 5754 5753 5752 5752
5806 5804 5801 5799 5796 5793 5791 5789 5787 5785 5783 5781 5780 5778 5777 5776 5774 5774 5773 5771 5770 5769 5768 5766 5765 5763 5762 5761 5760 5759 5758 5757 5756 5755 5754 5753 5752 5751 5750 5748 5747 5746 5745
5803 5800 5798 5795 5792 5789 5787 5785 5783 5781 5780 5778 5777 5775 5774 5773 5772 5771 5770 5769 5767 5766 5764 5763 5761 5760 5758 5757 5756 5754 5753 5752 5751 5750 5749 5748 5747 5745 5744 5742 5740 5739 5738
5800 5797 5794 5791 5789 5785 5783 5781 5779 5777 5776 5775 5773 5772 5771 5770 5768 5768 5767 5766 5764 5763 5761 5760 5758 5756 5755 5753 5751 5750 5749 5747 5746 5745 5744 5743 5741 5740 5738 5736 5734 5733 5731
5797 5793 5790 5787 5785 5782 5780 5778 5776 5775 5773 5771 5770 5769 5767 5766 5765 5765 5764 5763 5761 5760 5758 5756 5754 5753 5751 5749 5747 5745 5744 5743 5742 5740 5739 5737 5736 5734 5733 5731 5729 5727 5725
5793 5790 5787 5784 5782 5779 5777 5775 5773 5772 5770 5768 5767 5765 5764 5763 5762 5761 5760 5759 5757 5756 5754 5753 5751 5749 5747 5745 5743 5741 5740 5738 5737 5736 5734 5733 5731 5729 5727 5725 5723 5721 5719
5789 5787 5784 5781 5779 5776 5774 5772 5770 5769 5767 5765 5764 5762 5761 5759 5758 5757 5756 5755 5754 5752 5751 5749 5747 5745 5743 5741 5739 5737 5736 5734 5732 5731 5729 5728 5726 5724 5722 5720 5718 5716 5714
5786 5783 5781 5778 5776 5773 5771 5769 5767 5765 5763 5762 5760 5759 5757 5756 5754 5753 5752 5751 5750 5749 5747 5746 5744 5742 5740 5738 5736 5733 5731 5730 5728 5726 5724 5723 5721 5719 5717 5715 5713 5710 5708
5782 5780 5777 5775 5773 5770 5768 5766 5764 5762 5760 5758 5757 5755 5753 5752 5751 5750 5749 5748 5746 5745 5743 5742 5740 5738 5736 5734 5732 5730 5727 5725 5724 5722 5720 5718 5716 5714 5712 5710 5707 5705 5702
5779 5776 5774 5772 5770 5767 5765 5763 5761 5759 5757 5755 5753 5752 5750 5749 5747 5746 5745 5744 5742 5741 5739 5738 5736 5734 5732 5730 5728 5725 5723 5721 5720 5718 5715 5713 5711 5709 5707 5704 5702 5699 5696
5775 5772 5770 5768 5766 5764 5762 5760 5758 5756 5754 5752 5750 5748 5747 5745 5744 5742 5741 5740 5739 5737 5735 5734 5732 5730 5728 5726 5724 5721 5719 5717 5715 5714 5711 5709 5706 5704 5701 5699 5696 5693 5690
5771 5768 5766 5764 5762 5760 5758 5756 5754 5752 5751 5749 5747 5745 5743 5742 5740 5739 5737 5736 5735 5733 5732 5730 5728 5726 5724 5722 5719 5717 5715 5713 5711 5709 5707 5704 5701 5699 5696 5693 5690 5687 5684
5767 5764 5762 5760 5759 5757 5755 5753 5751 5749 5747 5745 5743 5741 5739 5738 5737 5735 5734 5732 5730 5729 5727 5725 5723 5721 5719 5717 5715 5713 5711 5709 5707 5704 5702 5699 5697 5694 5690 5687 5684 5681 5679
5763 5761 5758 5756 5755 5753 5751 5749 5747 5745 5743 5741 5739 5737 5736 5734 5733 5731 5730 5728 5726 5724 5723 5721 5719 5717 5715 5713 5710 5708 5706 5704 5702 5700 5697 5695 5692 5688 5685 5682 5679 5676 5673
5758 5756 5754 5752 5750 5748 5747 5745 5742 5741 5739 5737 5735 5733 5732 5730 5728 5727 5725 5723 5722 5720 5718 5717 5715 5712 5710 5708 5706 5704 5702 5700 5698 5695 5692 5690 5687 5684 5681 5677 5674 5670 5667
5753 5751 5749 5748 5745 5743 5742 5740 5738 5736 5734 5732 5730 5728 5727 5726 5724 5722 5720 5719 5717 5715 5714 5712 5710 5707 5705 5704 5702 5700 5697 5695 5693 5690 5688 5685 5682 5679 5676 5672 5669 5666 5662
5748 5746 5744 5742 5740 5738 5737 5735 5733 5731 5729 5727 5726 5724 5722 5720 5719 5717 5716 5714 5712 5711 5709 5707 5705 5703 5701 5699 5697 5695 5693 5691 5689 5686 5683 5680 5677 5674 5671 5668 5664 5661 5657
5741 5740 5738 5736 5734 5733 5731 5730 5728 5726 5724 5722 5720 5719 5717 5715 5714 5712 5711 5709 5707 5706 5704 5702 5700 5698 5697 5695 5693 5691 5689 5687 5685 5682 5679 5676 5673 5670 5667 5663 5659 5656 5652
5734 5733 5732 5730 5728 5727 5726 5724 5722 5721 5719 5718 5716 5714 5712 5710 5709 5707 5706 5704 5702 5701 5699 5698 5696 5694 5693 5691 5689 5687 5685 5682 5680 5678 5675 5672 5669 5665 5662 5658 5654 5651 5647